Time,TemperatureF,DewpointF,PressureIn,WindDirection,WindDirectionDegrees,WindSpeedMPH,WindSpeedGustMPH,Humidity,HourlyPrecipIn,Conditions,Clouds,dailyrainin,SolarRadiationWatts/m^2,SoftwareType,DateUTC
2013-04-03 00:01:00,62.1,55.9,29.95,ESE,108,0.0,0.0,80,0.00,,,0.00,0,Wunderground v.1.15,2013-04-03 05:01:00,
2013-04-03 00:07:00,62.0,55.8,29.95,ESE,108,0.0,0.0,80,0.00,,,0.00,0,Wunderground v.1.15,2013-04-03 05:07:00,
2013-04-03 00:13:00,61.8,55.6,29.94,ESE,108,0.0,0.0,80,0.00,,,0.00,0,Wunderground v.1.15,2013-04-03 05:13:00,
2013-04-03 00:18:00,61.7,55.8,29.94,ESE,108,0.0,0.0,81,0.00,,,0.00,0,Wunderground v.1.15,2013-04-03 05:18:00,
2013-04-03 00:24:00,61.5,56.0,29.93,ESE,104,0.0,0.0,82,0.00,,,0.00,0,Wunderground v.1.15,2013-04-03 05:24:00,
2013-04-03 00:29:00,61.5,56.0,29.93,East,100,0.0,2.0,82,0.00,,,0.00,0,Wunderground v.1.15,2013-04-03 05:29:00,
2013-04-03 00:35:00,61.5,56.0,29.92,East,95,0.0,3.0,82,0.00,,,0.00,0,Wunderground v.1.15,2013-04-03 05:35:00,
2013-04-03 00:40:00,61.5,56.0,29.92,East,90,0.0,0.0,82,0.00,,,0.00,0,Wunderground v.1.15,2013-04-03 05:40:00,
2013-04-03 00:46:00,61.5,56.3,29.92,ENE,61,0.0,0.0,83,0.00,,,0.00,0,Wunderground v.1.15,2013-04-03 05:46:00,
2013-04-03 00:51:00,61.5,56.3,29.93,ENE,61,0.0,0.0,83,0.00,,,0.00,0,Wunderground v.1.15,2013-04-03 05:51:00,
2013-04-03 00:56:00,61.6,56.4,29.93,ENE,61,0.0,0.0,83,0.00,,,0.00,0,Wunderground v.1.15,2013-04-03 05:56:00,
2013-04-03 01:01:00,61.6,56.4,29.93,ENE,64,0.0,4.0,83,0.00,,,0.00,0,Wunderground v.1.15,2013-04-03 06:01:00,
2013-04-03 01:07:00,61.6,56.4,29.94,ENE,65,0.0,4.0,83,0.00,,,0.00,0,Wunderground v.1.15,2013-04-03 06:07:00,
2013-04-03 01:12:00,61.8,56.6,29.94,ENE,70,0.0,4.0,83,0.00,,,0.00,0,Wunderground v.1.15,2013-04-03 06:12:00,
2013-04-03 01:17:00,61.8,56.2,29.94,NE,48,1.0,5.0,82,0.00,,,0.00,0,Wunderground v.1.15,2013-04-03 06:17:00,
2013-04-03 01:23:00,61.9,56.3,29.93,ESE,108,1.0,4.0,82,0.00,,,0.00,0,Wunderground v.1.15,2013-04-03 06:23:00,
2013-04-03 01:28:00,61.9,56.3,29.93,NE,54,1.0,4.0,82,0.00,,,0.00,0,Wunderground v.1.15,2013-04-03 06:28:00,
2013-04-03 01:34:00,62.0,56.4,29.93,NE,37,0.0,6.0,82,0.00,,,0.00,0,Wunderground v.1.15,2013-04-03 06:34:00,
2013-04-03 01:40:00,62.0,56.1,29.93,East,88,1.0,6.0,81,0.00,,,0.00,0,Wunderground v.1.15,2013-04-03 06:40:00,
2013-04-03 01:45:00,62.1,56.2,29.92,NE,50,1.0,5.0,81,0.00,,,0.00,0,Wunderground v.1.15,2013-04-03 06:45:00,
2013-04-03 01:50:00,62.1,56.2,29.92,East,100,1.0,5.0,81,0.00,,,0.00,0,Wunderground v.1.15,2013-04-03 06:50:00,
2013-04-03 01:56:00,62.2,56.3,29.92,ENE,65,0.0,4.0,81,0.00,,,0.00,0,Wunderground v.1.15,2013-04-03 06:56:00,
2013-04-03 02:02:00,62.1,55.9,29.91,ENE,71,1.0,4.0,80,0.00,,,0.00,0,Wunderground v.1.15,2013-04-03 07:02:00,
2013-04-03 02:07:00,62.1,56.2,29.91,ENE,57,1.0,4.0,81,0.00,,,0.00,0,Wunderground v.1.15,2013-04-03 07:07:00,
2013-04-03 02:13:00,62.0,55.8,29.91,East,81,0.0,4.0,80,0.00,,,0.00,0,Wunderground v.1.15,2013-04-03 07:13:00,
2013-04-03 02:18:00,62.0,55.8,29.91,SE,133,1.0,5.0,80,0.00,,,0.00,0,Wunderground v.1.15,2013-04-03 07:18:00,
2013-04-03 02:23:00,62.0,55.4,29.91,East,94,1.0,4.0,79,0.00,,,0.00,0,Wunderground v.1.15,2013-04-03 07:23:00,
2013-04-03 02:28:00,62.0,55.1,29.91,NNE,24,1.0,4.0,78,0.00,,,0.00,0,Wunderground v.1.15,2013-04-03 07:28:00,
2013-04-03 02:34:00,61.9,55.0,29.91,ESE,104,1.0,4.0,78,0.00,,,0.00,0,Wunderground v.1.15,2013-04-03 07:34:00,
2013-04-03 02:39:00,61.9,55.0,29.92,ESE,120,0.0,4.0,78,0.00,,,0.00,0,Wunderground v.1.15,2013-04-03 07:39:00,
2013-04-03 02:45:00,61.9,54.6,29.92,East,97,0.0,4.0,77,0.00,,,0.00,0,Wunderground v.1.15,2013-04-03 07:45:00,
2013-04-03 02:50:00,61.9,54.6,29.92,East,97,0.0,4.0,77,0.00,,,0.00,0,Wunderground v.1.15,2013-04-03 07:50:00,
2013-04-03 02:55:00,61.8,54.5,29.92,ESE,115,0.0,4.0,77,0.00,,,0.00,0,Wunderground v.1.15,2013-04-03 07:55:00,
2013-04-03 03:00:00,61.7,54.4,29.92,ENE,78,0.0,4.0,77,0.00,,,0.00,0,Wunderground v.1.15,2013-04-03 08:00:00,
2013-04-03 03:07:00,61.6,54.3,29.92,East,92,0.0,4.0,77,0.00,,,0.00,0,Wunderground v.1.15,2013-04-03 08:07:00,
2013-04-03 03:12:00,61.5,54.2,29.92,East,81,0.0,4.0,77,0.00,,,0.00,0,Wunderground v.1.15,2013-04-03 08:12:00,
2013-04-03 03:18:00,61.4,54.1,29.91,East,82,1.0,4.0,77,0.00,,,0.00,0,Wunderground v.1.15,2013-04-03 08:18:00,
2013-04-03 03:23:00,61.3,54.0,29.92,East,81,0.0,4.0,77,0.00,,,0.00,0,Wunderground v.1.15,2013-04-03 08:23:00,
2013-04-03 03:29:00,61.1,53.8,29.92,ENE,77,0.0,4.0,77,0.00,,,0.00,0,Wunderground v.1.15,2013-04-03 08:29:00,
2013-04-03 03:35:00,60.9,54.3,29.92,ENE,57,0.0,4.0,79,0.00,,,0.00,0,Wunderground v.1.15,2013-04-03 08:35:00,
2013-04-03 03:40:00,60.7,54.1,29.92,ENE,61,0.0,4.0,79,0.00,,,0.00,0,Wunderground v.1.15,2013-04-03 08:40:00,
2013-04-03 03:46:00,60.2,54.3,29.92,NE,44,0.0,4.0,81,0.00,,,0.00,0,Wunderground v.1.15,2013-04-03 08:46:00,
2013-04-03 03:51:00,59.7,54.5,29.92,ENE,59,0.0,4.0,83,0.00,,,0.00,0,Wunderground v.1.15,2013-04-03 08:51:00,
2013-04-03 03:57:00,59.0,54.2,29.92,NE,54,0.0,4.0,84,0.00,,,0.00,0,Wunderground v.1.15,2013-04-03 08:57:00,
2013-04-03 04:03:00,58.7,54.8,29.93,NE,50,0.0,4.0,87,0.00,,,0.00,0,Wunderground v.1.15,2013-04-03 09:03:00,
2013-04-03 04:09:00,58.1,54.6,29.93,NE,48,0.0,4.0,88,0.00,,,0.00,0,Wunderground v.1.15,2013-04-03 09:09:00,
2013-04-03 04:14:00,57.7,54.5,29.92,NE,46,0.0,4.0,89,0.00,,,0.00,0,Wunderground v.1.15,2013-04-03 09:14:00,
2013-04-03 04:21:00,57.1,54.5,29.92,NNE,23,1.0,4.0,91,0.00,,,0.00,0,Wunderground v.1.15,2013-04-03 09:21:00,
2013-04-03 04:27:00,56.7,54.4,29.93,ENE,67,1.0,4.0,92,0.00,,,0.00,0,Wunderground v.1.15,2013-04-03 09:27:00,
2013-04-03 04:33:00,56.3,54.0,29.93,NNE,27,1.0,4.0,92,0.00,,,0.00,0,Wunderground v.1.15,2013-04-03 09:33:00,
2013-04-03 04:39:00,55.9,53.9,29.92,NNE,23,3.0,6.0,93,0.00,,,0.00,0,Wunderground v.1.15,2013-04-03 09:39:00,
2013-04-03 04:44:00,55.7,54.0,29.93,NNE,15,3.0,6.0,94,0.00,,,0.00,0,Wunderground v.1.15,2013-04-03 09:44:00,
2013-04-03 04:49:00,55.5,53.8,29.93,ENE,64,1.0,6.0,94,0.00,,,0.00,0,Wunderground v.1.15,2013-04-03 09:49:00,
2013-04-03 04:56:00,55.3,53.6,29.94,NNE,29,1.0,6.0,94,0.00,,,0.00,0,Wunderground v.1.15,2013-04-03 09:56:00,
2013-04-03 05:04:00,55.1,53.4,29.94,ENE,61,2.0,7.0,94,0.00,,,0.00,0,Wunderground v.1.15,2013-04-03 10:04:00,
2013-04-03 05:09:00,55.0,53.3,29.94,NE,56,2.0,7.0,94,0.00,,,0.00,0,Wunderground v.1.15,2013-04-03 10:09:00,
2013-04-03 05:18:00,54.8,53.1,29.94,ENE,61,1.0,7.0,94,0.00,,,0.00,0,Wunderground v.1.15,2013-04-03 10:18:00,
2013-04-03 05:25:00,54.7,53.3,29.94,NE,34,1.0,4.0,95,0.00,,,0.00,0,Wunderground v.1.15,2013-04-03 10:25:00,
2013-04-03 05:33:00,54.4,53.0,29.94,ENE,65,2.0,8.0,95,0.00,,,0.00,0,Wunderground v.1.15,2013-04-03 10:33:00,
2013-04-03 05:38:00,54.3,52.9,29.94,ENE,57,2.0,8.0,95,0.00,,,0.00,0,Wunderground v.1.15,2013-04-03 10:38:00,
2013-04-03 05:45:00,54.2,52.8,29.94,NE,45,2.0,4.0,95,0.00,,,0.00,0,Wunderground v.1.15,2013-04-03 10:45:00,
2013-04-03 05:50:00,54.0,52.6,29.95,NE,35,1.0,1.0,95,0.00,,,0.00,0,Wunderground v.1.15,2013-04-03 10:50:00,
2013-04-03 05:55:00,53.9,52.5,29.95,NE,44,1.0,4.0,95,0.00,,,0.00,0,Wunderground v.1.15,2013-04-03 10:55:00,
2013-04-03 06:04:00,53.7,52.3,29.95,East,79,1.0,4.0,95,0.00,,,0.00,0,Wunderground v.1.15,2013-04-03 11:04:00,
2013-04-03 06:19:00,53.3,52.2,29.95,NNE,29,2.0,8.0,96,0.00,,,0.00,0,Wunderground v.1.15,2013-04-03 11:19:00,
2013-04-03 06:24:00,53.2,51.8,29.95,NE,48,3.0,9.0,95,0.00,,,0.00,0,Wunderground v.1.15,2013-04-03 11:24:00,
2013-04-03 06:30:00,53.1,52.0,29.95,NE,56,3.0,3.0,96,0.00,,,0.00,0,Wunderground v.1.15,2013-04-03 11:30:00,
2013-04-03 06:36:00,53.0,51.9,29.95,ENE,63,2.0,6.0,96,0.00,,,0.00,0,Wunderground v.1.15,2013-04-03 11:36:00,
2013-04-03 06:42:00,53.0,51.9,29.96,East,88,1.0,4.0,96,0.00,,,0.00,0,Wunderground v.1.15,2013-04-03 11:42:00,
2013-04-03 06:48:00,52.9,51.8,29.95,ESE,107,2.0,6.0,96,0.00,,,0.00,0,Wunderground v.1.15,2013-04-03 11:48:00,
2013-04-03 06:53:00,52.8,51.7,29.95,East,90,3.0,8.0,96,0.00,,,0.00,0,Wunderground v.1.15,2013-04-03 11:53:00,
2013-04-03 06:59:00,52.8,51.7,29.94,ENE,75,3.0,8.0,96,0.00,,,0.00,0,Wunderground v.1.15,2013-04-03 11:59:00,
2013-04-03 07:04:00,52.7,51.6,29.94,NE,34,2.0,4.0,96,0.00,,,0.00,0,Wunderground v.1.15,2013-04-03 12:04:00,
2013-04-03 07:10:00,52.6,51.5,29.94,ENE,65,3.0,7.0,96,0.00,,,0.00,0,Wunderground v.1.15,2013-04-03 12:10:00,
2013-04-03 07:15:00,52.4,51.3,29.94,ENE,60,5.0,7.0,96,0.00,,,0.00,0,Wunderground v.1.15,2013-04-03 12:15:00,
2013-04-03 07:20:00,52.4,51.3,29.94,East,99,4.0,4.0,96,0.00,,,0.00,0,Wunderground v.1.15,2013-04-03 12:20:00,
2013-04-03 07:26:00,52.3,51.2,29.95,East,101,2.0,7.0,96,0.00,,,0.00,0,Wunderground v.1.15,2013-04-03 12:26:00,
2013-04-03 07:32:00,52.3,51.2,29.94,NNE,15,2.0,8.0,96,0.00,,,0.00,0,Wunderground v.1.15,2013-04-03 12:32:00,
2013-04-03 07:37:00,52.2,51.1,29.94,ENE,75,2.0,8.0,96,0.00,,,0.00,0,Wunderground v.1.15,2013-04-03 12:37:00,
2013-04-03 07:42:00,52.1,51.0,29.95,ENE,67,1.0,4.0,96,0.00,,,0.00,0,Wunderground v.1.15,2013-04-03 12:42:00,
2013-04-03 07:47:00,52.1,51.0,29.95,ESE,117,1.0,4.0,96,0.00,,,0.00,5,Wunderground v.1.15,2013-04-03 12:47:00,
2013-04-03 07:52:00,52.1,51.0,29.95,East,86,1.0,5.0,96,0.00,,,0.00,5,Wunderground v.1.15,2013-04-03 12:52:00,
2013-04-03 07:58:00,52.1,51.0,29.95,ENE,59,1.0,5.0,96,0.00,,,0.00,7,Wunderground v.1.15,2013-04-03 12:58:00,
2013-04-03 08:04:00,52.1,51.0,29.95,East,90,1.0,7.0,96,0.00,,,0.00,7,Wunderground v.1.15,2013-04-03 13:04:00,
2013-04-03 08:10:00,52.0,51.2,29.95,NNE,29,2.0,6.0,97,0.00,,,0.00,7,Wunderground v.1.15,2013-04-03 13:10:00,
2013-04-03 08:15:00,51.9,51.1,29.97,ESE,103,2.0,6.0,97,0.00,,,0.00,0,Wunderground v.1.15,2013-04-03 13:15:00,
2013-04-03 08:20:00,51.9,51.1,29.98,ENE,59,1.0,4.0,97,0.00,,,0.00,9,Wunderground v.1.15,2013-04-03 13:20:00,
2013-04-03 08:26:00,51.8,50.7,29.97,ENE,60,1.0,8.0,96,0.00,,,0.00,12,Wunderground v.1.15,2013-04-03 13:26:00,
2013-04-03 08:31:00,51.7,50.6,29.96,ENE,67,1.0,4.0,96,0.00,,,0.00,14,Wunderground v.1.15,2013-04-03 13:31:00,
2013-04-03 08:36:00,51.6,50.5,29.97,East,90,1.0,6.0,96,0.00,,,0.00,12,Wunderground v.1.15,2013-04-03 13:36:00,
2013-04-03 08:41:00,51.6,50.5,29.97,ENE,76,2.0,4.0,96,0.00,,,0.00,12,Wunderground v.1.15,2013-04-03 13:41:00,
2013-04-03 08:47:00,51.5,50.7,29.95,NNE,30,2.0,5.0,97,0.00,,,0.00,14,Wunderground v.1.15,2013-04-03 13:47:00,
2013-04-03 08:53:00,51.5,50.7,29.94,NE,54,2.0,4.0,97,0.00,,,0.00,25,Wunderground v.1.15,2013-04-03 13:53:00,
2013-04-03 08:58:00,51.5,50.7,29.93,ENE,65,3.0,5.0,97,0.00,,,0.00,28,Wunderground v.1.15,2013-04-03 13:58:00,
2013-04-03 09:03:00,51.5,50.7,29.93,ESE,103,4.0,7.0,97,0.00,,,0.00,37,Wunderground v.1.15,2013-04-03 14:03:00,
2013-04-03 09:09:00,51.5,50.7,29.93,North,359,2.0,7.0,97,0.00,,,0.00,58,Wunderground v.1.15,2013-04-03 14:09:00,
2013-04-03 09:15:00,51.5,50.7,29.91,East,86,3.0,4.0,97,0.00,,,0.00,69,Wunderground v.1.15,2013-04-03 14:15:00,
2013-04-03 09:20:00,51.6,50.8,29.91,East,92,3.0,3.0,97,0.00,,,0.00,93,Wunderground v.1.15,2013-04-03 14:20:00,
2013-04-03 09:26:00,51.5,50.7,29.90,East,96,2.0,7.0,97,0.00,,,0.00,102,Wunderground v.1.15,2013-04-03 14:26:00,
2013-04-03 09:31:00,51.4,50.6,29.89,East,88,4.0,7.0,97,0.00,,,0.00,93,Wunderground v.1.15,2013-04-03 14:31:00,
2013-04-03 09:37:00,51.3,50.5,29.89,East,82,6.0,10.0,97,0.00,,,0.00,79,Wunderground v.1.15,2013-04-03 14:37:00,
2013-04-03 09:43:00,51.2,50.4,29.89,North,352,5.0,7.0,97,0.00,,,0.00,56,Wunderground v.1.15,2013-04-03 14:43:00,
2013-04-03 09:48:00,51.1,50.3,29.87,ESE,117,5.0,10.0,97,0.00,,,0.00,62,Wunderground v.1.15,2013-04-03 14:48:00,
2013-04-03 09:54:00,51.0,50.2,29.87,NE,52,5.0,17.0,97,0.00,,,0.00,53,Wunderground v.1.15,2013-04-03 14:54:00,
2013-04-03 10:00:00,50.8,50.0,29.86,East,92,7.0,7.0,97,0.00,,,0.00,70,Wunderground v.1.15,2013-04-03 15:00:00,
2013-04-03 10:05:00,50.8,50.0,29.83,East,98,6.0,11.0,97,0.00,,,0.00,54,Wunderground v.1.15,2013-04-03 15:05:00,
2013-04-03 10:10:00,50.7,49.9,29.80,NE,52,6.0,6.0,97,0.00,,,0.00,51,Wunderground v.1.15,2013-04-03 15:10:00,
2013-04-03 10:16:00,50.8,50.0,29.88,East,98,4.0,7.0,97,0.00,,,0.00,65,Wunderground v.1.15,2013-04-03 15:16:00,
2013-04-03 10:22:00,51.0,50.2,29.89,ENE,71,2.0,11.0,97,0.00,,,0.00,56,Wunderground v.1.15,2013-04-03 15:22:00,
2013-04-03 10:27:00,51.1,50.3,29.91,SE,131,3.0,11.0,97,0.00,,,0.00,58,Wunderground v.1.15,2013-04-03 15:27:00,
2013-04-03 10:32:00,51.2,50.4,29.91,SSE,149,1.0,4.0,97,0.00,,,0.00,62,Wunderground v.1.15,2013-04-03 15:32:00,
2013-04-03 10:37:00,51.4,50.6,29.92,ENE,74,1.0,5.0,97,0.00,,,0.00,83,Wunderground v.1.15,2013-04-03 15:37:00,
2013-04-03 10:43:00,51.5,50.7,29.92,NE,49,2.0,5.0,97,0.00,,,0.00,90,Wunderground v.1.15,2013-04-03 15:43:00,
2013-04-03 10:48:00,51.6,50.8,29.92,NE,43,1.0,5.0,97,0.00,,,0.00,109,Wunderground v.1.15,2013-04-03 15:48:00,
2013-04-03 10:53:00,51.8,51.0,29.92,ENE,60,1.0,5.0,97,0.00,,,0.00,102,Wunderground v.1.15,2013-04-03 15:53:00,
2013-04-03 10:59:00,51.9,50.8,29.92,East,99,2.0,5.0,96,0.00,,,0.00,142,Wunderground v.1.15,2013-04-03 15:59:00,
2013-04-03 11:04:00,51.9,51.1,29.93,East,79,2.0,7.0,97,0.00,,,0.00,111,Wunderground v.1.15,2013-04-03 16:04:00,
2013-04-03 11:09:00,52.0,51.2,29.93,ENE,71,2.0,8.0,97,0.00,,,0.00,146,Wunderground v.1.15,2013-04-03 16:09:00,
2013-04-03 11:16:00,52.2,51.1,29.93,NNE,19,2.0,13.0,96,0.00,,,0.00,120,Wunderground v.1.15,2013-04-03 16:16:00,
2013-04-03 11:23:00,52.4,51.3,29.95,South,169,2.0,4.0,96,0.00,,,0.00,88,Wunderground v.1.15,2013-04-03 16:23:00,
2013-04-03 11:28:00,52.5,51.4,29.95,East,100,2.0,7.0,96,0.00,,,0.00,67,Wunderground v.1.15,2013-04-03 16:28:00,
2013-04-03 11:34:00,52.6,51.5,29.94,East,92,3.0,9.0,96,0.00,,,0.00,111,Wunderground v.1.15,2013-04-03 16:34:00,
2013-04-03 11:39:00,52.6,51.5,29.94,ESE,118,2.0,9.0,96,0.00,,,0.00,98,Wunderground v.1.15,2013-04-03 16:39:00,
2013-04-03 11:44:00,52.7,51.6,29.93,NE,34,1.0,4.0,96,0.00,,,0.00,153,Wunderground v.1.15,2013-04-03 16:44:00,
2013-04-03 11:49:00,52.8,51.7,29.93,ESE,102,2.0,6.0,96,0.00,,,0.00,151,Wunderground v.1.15,2013-04-03 16:49:00,
2013-04-03 11:55:00,53.1,51.7,29.92,NNE,15,2.0,10.0,95,0.00,,,0.00,132,Wunderground v.1.15,2013-04-03 16:55:00,
2013-04-03 12:01:00,53.2,51.8,29.93,ENE,60,2.0,8.0,95,0.00,,,0.00,137,Wunderground v.1.15,2013-04-03 17:01:00,
2013-04-03 12:07:00,53.3,51.9,29.93,East,86,2.0,8.0,95,0.00,,,0.00,125,Wunderground v.1.15,2013-04-03 17:07:00,
2013-04-03 12:13:00,53.3,51.6,29.93,NE,48,2.0,6.0,94,0.00,,,0.00,162,Wunderground v.1.15,2013-04-03 17:13:00,
2013-04-03 12:18:00,53.4,51.7,29.93,NNE,25,2.0,7.0,94,0.00,,,0.00,135,Wunderground v.1.15,2013-04-03 17:18:00,
2013-04-03 12:23:00,53.5,51.8,29.92,East,99,2.0,8.0,94,0.00,,,0.00,169,Wunderground v.1.15,2013-04-03 17:23:00,
2013-04-03 12:28:00,53.6,51.9,29.92,ENE,67,2.0,8.0,94,0.00,,,0.00,169,Wunderground v.1.15,2013-04-03 17:28:00,
2013-04-03 12:35:00,53.8,52.1,29.92,East,90,2.0,6.0,94,0.00,,,0.00,158,Wunderground v.1.15,2013-04-03 17:35:00,
2013-04-03 12:41:00,54.0,52.3,29.93,North,357,2.0,6.0,94,0.00,,,0.00,113,Wunderground v.1.15,2013-04-03 17:41:00,
2013-04-03 12:47:00,54.1,52.4,29.93,North,5,2.0,6.0,94,0.00,,,0.00,111,Wunderground v.1.15,2013-04-03 17:47:00,
2013-04-03 12:52:00,54.2,52.5,29.92,NE,46,2.0,4.0,94,0.00,,,0.00,142,Wunderground v.1.15,2013-04-03 17:52:00,
2013-04-03 12:58:00,54.1,52.1,29.92,NE,35,2.0,6.0,93,0.00,,,0.00,90,Wunderground v.1.15,2013-04-03 17:58:00,
2013-04-03 13:03:00,54.1,52.1,29.92,NNE,29,3.0,9.0,93,0.00,,,0.00,81,Wunderground v.1.15,2013-04-03 18:03:00,
2013-04-03 13:08:00,54.1,52.1,29.92,ENE,63,2.0,9.0,93,0.00,,,0.00,135,Wunderground v.1.15,2013-04-03 18:08:00,
2013-04-03 13:13:00,54.2,52.2,29.92,North,360,2.0,4.0,93,0.00,,,0.00,127,Wunderground v.1.15,2013-04-03 18:13:00,
2013-04-03 13:18:00,54.2,52.2,29.92,NE,44,2.0,10.0,93,0.00,,,0.00,120,Wunderground v.1.15,2013-04-03 18:18:00,
2013-04-03 13:25:00,54.2,52.2,29.92,ENE,74,3.0,9.0,93,0.00,,,0.00,105,Wunderground v.1.15,2013-04-03 18:25:00,
2013-04-03 13:31:00,54.1,52.1,29.92,NNE,32,4.0,6.0,93,0.00,,,0.00,95,Wunderground v.1.15,2013-04-03 18:31:00,
2013-04-03 13:36:00,54.0,52.0,29.92,NNE,21,3.0,6.0,93,0.00,,,0.00,90,Wunderground v.1.15,2013-04-03 18:36:00,
2013-04-03 13:41:00,53.9,51.9,29.92,NE,36,2.0,4.0,93,0.00,,,0.00,67,Wunderground v.1.15,2013-04-03 18:41:00,
2013-04-03 13:47:00,53.9,51.9,29.92,ENE,59,1.0,6.0,93,0.00,,,0.00,77,Wunderground v.1.15,2013-04-03 18:47:00,
2013-04-03 13:52:00,53.8,51.8,29.92,NNE,15,2.0,7.0,93,0.00,,,0.00,90,Wunderground v.1.15,2013-04-03 18:52:00,
2013-04-03 13:58:00,53.6,51.6,29.91,NE,44,2.0,9.0,93,0.00,,,0.00,123,Wunderground v.1.15,2013-04-03 18:58:00,
2013-04-03 14:05:00,53.5,51.5,29.91,North,360,2.0,8.0,93,0.00,,,0.00,148,Wunderground v.1.15,2013-04-03 19:05:00,
2013-04-03 14:11:00,53.5,51.5,29.91,North,352,3.0,4.0,93,0.00,,,0.00,90,Wunderground v.1.15,2013-04-03 19:11:00,
2013-04-03 14:16:00,53.3,51.3,29.91,NNW,340,4.0,8.0,93,0.00,,,0.00,90,Wunderground v.1.15,2013-04-03 19:16:00,
2013-04-03 14:21:00,53.3,51.6,29.91,NNE,23,3.0,4.0,94,0.00,,,0.00,95,Wunderground v.1.15,2013-04-03 19:21:00,
2013-04-03 14:27:00,53.2,51.2,29.91,NE,48,1.0,8.0,93,0.00,,,0.00,93,Wunderground v.1.15,2013-04-03 19:27:00,
2013-04-03 14:33:00,53.0,51.0,29.90,NE,34,3.0,7.0,93,0.00,,,0.00,93,Wunderground v.1.15,2013-04-03 19:33:00,
2013-04-03 14:39:00,52.9,51.2,29.90,ENE,68,3.0,7.0,94,0.00,,,0.00,116,Wunderground v.1.15,2013-04-03 19:39:00,
2013-04-03 14:44:00,52.7,50.7,29.90,NNE,19,4.0,10.0,93,0.00,,,0.00,137,Wunderground v.1.15,2013-04-03 19:44:00,
2013-04-03 14:49:00,52.6,50.6,29.90,North,352,6.0,10.0,93,0.00,,,0.00,86,Wunderground v.1.15,2013-04-03 19:49:00,
2013-04-03 14:55:00,52.4,50.7,29.90,NE,49,5.0,10.0,94,0.00,,,0.00,91,Wunderground v.1.15,2013-04-03 19:55:00,
2013-04-03 15:00:00,52.3,50.6,29.90,NNE,29,4.0,7.0,94,0.00,,,0.00,95,Wunderground v.1.15,2013-04-03 20:00:00,
2013-04-03 15:07:00,52.3,50.6,29.90,North,5,4.0,8.0,94,0.00,,,0.00,93,Wunderground v.1.15,2013-04-03 20:07:00,
2013-04-03 15:12:00,52.3,50.6,29.90,NNE,32,1.0,5.0,94,0.00,,,0.00,67,Wunderground v.1.15,2013-04-03 20:12:00,
2013-04-03 15:18:00,52.3,50.6,29.90,NW,324,1.0,5.0,94,0.00,,,0.00,65,Wunderground v.1.15,2013-04-03 20:18:00,
2013-04-03 15:23:00,52.1,50.4,29.90,NE,36,3.0,9.0,94,0.00,,,0.00,51,Wunderground v.1.15,2013-04-03 20:23:00,
2013-04-03 15:28:00,52.0,50.3,29.90,ENE,64,5.0,11.0,94,0.00,,,0.00,49,Wunderground v.1.15,2013-04-03 20:28:00,
2013-04-03 15:34:00,51.9,50.2,29.90,NNE,30,4.0,8.0,94,0.00,,,0.00,49,Wunderground v.1.15,2013-04-03 20:34:00,
2013-04-03 15:39:00,51.9,50.2,29.90,NNE,19,3.0,9.0,94,0.00,,,0.00,42,Wunderground v.1.15,2013-04-03 20:39:00,
2013-04-03 15:44:00,51.9,50.2,29.90,NE,48,3.0,10.0,94,0.00,,,0.00,40,Wunderground v.1.15,2013-04-03 20:44:00,
2013-04-03 15:50:00,51.7,50.0,29.90,North,5,4.0,4.0,94,0.00,,,0.00,40,Wunderground v.1.15,2013-04-03 20:50:00,
2013-04-03 15:55:00,51.5,49.8,29.90,NE,34,5.0,10.0,94,0.00,,,0.00,47,Wunderground v.1.15,2013-04-03 20:55:00,
2013-04-03 16:02:00,51.4,50.0,29.90,NNE,25,5.0,8.0,95,0.00,,,0.00,54,Wunderground v.1.15,2013-04-03 21:02:00,
2013-04-03 16:08:00,51.4,50.0,29.89,NE,50,5.0,8.0,95,0.00,,,0.00,65,Wunderground v.1.15,2013-04-03 21:08:00,
2013-04-03 16:13:00,51.3,49.9,29.89,NNE,26,5.0,8.0,95,0.00,,,0.00,83,Wunderground v.1.15,2013-04-03 21:13:00,
2013-04-03 16:19:00,51.3,49.9,29.89,NNW,346,4.0,11.0,95,0.00,,,0.00,63,Wunderground v.1.15,2013-04-03 21:19:00,
2013-04-03 16:24:00,51.3,49.9,29.89,NE,34,5.0,6.0,95,0.00,,,0.00,49,Wunderground v.1.15,2013-04-03 21:24:00,
2013-04-03 16:30:00,51.2,49.8,29.90,NE,41,4.0,4.0,95,0.00,,,0.00,47,Wunderground v.1.15,2013-04-03 21:30:00,
2013-04-03 16:36:00,51.1,49.7,29.90,North,350,3.0,4.0,95,0.00,,,0.00,47,Wunderground v.1.15,2013-04-03 21:36:00,
2013-04-03 16:42:00,51.0,49.6,29.90,ENE,58,4.0,6.0,95,0.00,,,0.00,56,Wunderground v.1.15,2013-04-03 21:42:00,
2013-04-03 16:48:00,51.0,49.6,29.90,NE,54,3.0,8.0,95,0.00,,,0.00,54,Wunderground v.1.15,2013-04-03 21:48:00,
2013-04-03 16:54:00,50.9,49.5,29.90,NE,36,4.0,8.0,95,0.00,,,0.00,54,Wunderground v.1.15,2013-04-03 21:54:00,
2013-04-03 16:59:00,50.9,49.5,29.90,East,79,3.0,8.0,95,0.00,,,0.00,60,Wunderground v.1.15,2013-04-03 21:59:00,
2013-04-03 17:05:00,50.8,49.4,29.90,NNE,15,4.0,5.0,95,0.00,,,0.00,46,Wunderground v.1.15,2013-04-03 22:05:00,
2013-04-03 17:10:00,50.8,49.4,29.90,North,356,4.0,4.0,95,0.00,,,0.00,47,Wunderground v.1.15,2013-04-03 22:10:00,
2013-04-03 17:15:00,50.7,49.3,29.90,NE,39,3.0,6.0,95,0.00,,,0.00,49,Wunderground v.1.15,2013-04-03 22:15:00,
2013-04-03 17:20:00,50.7,49.6,29.90,NE,36,3.0,6.0,96,0.00,,,0.00,46,Wunderground v.1.15,2013-04-03 22:20:00,
2013-04-03 17:26:00,50.7,49.6,29.90,ENE,57,3.0,12.0,96,0.00,,,0.00,47,Wunderground v.1.15,2013-04-03 22:26:00,
2013-04-03 17:31:00,50.6,49.5,29.90,NW,304,4.0,4.0,96,0.00,,,0.00,33,Wunderground v.1.15,2013-04-03 22:31:00,
2013-04-03 17:36:00,50.6,49.5,29.90,NW,307,3.0,6.0,96,0.00,,,0.00,33,Wunderground v.1.15,2013-04-03 22:36:00,
2013-04-03 17:42:00,50.5,49.4,29.90,NNE,27,3.0,7.0,96,0.00,,,0.00,32,Wunderground v.1.15,2013-04-03 22:42:00,
2013-04-03 17:48:00,50.4,49.3,29.90,NE,46,2.0,7.0,96,0.00,,,0.00,30,Wunderground v.1.15,2013-04-03 22:48:00,
2013-04-03 17:54:00,50.4,49.3,29.90,NE,34,2.0,4.0,96,0.00,,,0.00,30,Wunderground v.1.15,2013-04-03 22:54:00,
2013-04-03 17:59:00,50.3,49.2,29.90,East,84,1.0,5.0,96,0.00,,,0.00,18,Wunderground v.1.15,2013-04-03 22:59:00,
2013-04-03 18:04:00,50.1,49.0,29.91,NNE,29,2.0,12.0,96,0.00,,,0.00,23,Wunderground v.1.15,2013-04-03 23:04:00,
2013-04-03 18:10:00,49.9,48.8,29.90,NNE,15,3.0,6.0,96,0.00,,,0.00,25,Wunderground v.1.15,2013-04-03 23:10:00,
2013-04-03 18:16:00,49.7,48.6,29.90,East,81,3.0,10.0,96,0.00,,,0.00,18,Wunderground v.1.15,2013-04-03 23:16:00,
2013-04-03 18:22:00,49.5,48.4,29.91,ENE,71,3.0,4.0,96,0.00,,,0.00,11,Wunderground v.1.15,2013-04-03 23:22:00,
2013-04-03 18:28:00,49.5,48.4,29.92,ESE,123,3.0,7.0,96,0.00,,,0.00,7,Wunderground v.1.15,2013-04-03 23:28:00,
2013-04-03 18:34:00,49.4,48.3,29.92,NNW,329,2.0,4.0,96,0.00,,,0.00,5,Wunderground v.1.15,2013-04-03 23:34:00,
2013-04-03 18:39:00,49.3,48.2,29.92,NNE,19,3.0,10.0,96,0.00,,,0.00,5,Wunderground v.1.15,2013-04-03 23:39:00,
2013-04-03 18:45:00,49.1,48.0,29.92,NE,35,4.0,7.0,96,0.00,,,0.00,5,Wunderground v.1.15,2013-04-03 23:45:00,
2013-04-03 18:50:00,48.9,47.8,29.92,NNE,28,4.0,4.0,96,0.00,,,0.00,0,Wunderground v.1.15,2013-04-03 23:50:00,
2013-04-03 18:55:00,48.9,47.8,29.92,NE,34,4.0,9.0,96,0.00,,,0.00,0,Wunderground v.1.15,2013-04-03 23:55:00,
2013-04-03 19:01:00,48.8,47.7,29.93,NE,40,4.0,4.0,96,0.00,,,0.00,0,Wunderground v.1.15,2013-04-04 00:01:00,
2013-04-03 19:07:00,48.8,47.7,29.93,North,5,3.0,10.0,96,0.00,,,0.00,0,Wunderground v.1.15,2013-04-04 00:07:00,
2013-04-03 19:13:00,48.7,47.6,29.93,ENE,58,4.0,9.0,96,0.00,,,0.00,0,Wunderground v.1.15,2013-04-04 00:13:00,
2013-04-03 19:18:00,48.7,47.6,29.93,NE,49,3.0,9.0,96,0.00,,,0.00,0,Wunderground v.1.15,2013-04-04 00:18:00,
2013-04-03 19:24:00,48.7,47.6,29.94,NE,50,3.0,7.0,96,0.00,,,0.00,0,Wunderground v.1.15,2013-04-04 00:24:00,
2013-04-03 19:29:00,48.6,47.5,29.94,NE,34,2.0,7.0,96,0.00,,,0.00,0,Wunderground v.1.15,2013-04-04 00:29:00,
2013-04-03 19:35:00,48.5,47.4,29.94,ENE,57,1.0,4.0,96,0.00,,,0.00,0,Wunderground v.1.15,2013-04-04 00:35:00,
2013-04-03 19:40:00,48.5,47.4,29.94,North,360,2.0,2.0,96,0.00,,,0.00,0,Wunderground v.1.15,2013-04-04 00:40:00,
2013-04-03 19:45:00,48.4,47.3,29.95,North,5,2.0,4.0,96,0.00,,,0.00,0,Wunderground v.1.15,2013-04-04 00:45:00,
2013-04-03 19:52:00,48.3,47.2,29.95,ENE,67,2.0,4.0,96,0.00,,,0.00,0,Wunderground v.1.15,2013-04-04 00:52:00,
2013-04-03 19:58:00,48.3,47.2,29.95,NNE,19,2.0,9.0,96,0.00,,,0.00,0,Wunderground v.1.15,2013-04-04 00:58:00,
2013-04-03 20:04:00,48.2,47.1,29.95,ENE,60,2.0,4.0,96,0.00,,,0.00,0,Wunderground v.1.15,2013-04-04 01:04:00,
2013-04-03 20:09:00,48.2,47.1,29.94,NE,48,1.0,5.0,96,0.00,,,0.00,0,Wunderground v.1.15,2013-04-04 01:09:00,
2013-04-03 20:14:00,48.1,47.0,29.94,East,80,2.0,4.0,96,0.00,,,0.00,0,Wunderground v.1.15,2013-04-04 01:14:00,
2013-04-03 20:20:00,48.1,47.0,29.95,NW,318,1.0,8.0,96,0.00,,,0.00,0,Wunderground v.1.15,2013-04-04 01:20:00,
2013-04-03 20:25:00,48.0,46.9,29.95,ENE,61,2.0,8.0,96,0.00,,,0.00,0,Wunderground v.1.15,2013-04-04 01:25:00,
2013-04-03 20:32:00,48.0,46.9,29.96,ENE,58,1.0,4.0,96,0.00,,,0.00,0,Wunderground v.1.15,2013-04-04 01:32:00,
2013-04-03 20:37:00,48.0,46.9,29.96,NE,38,1.0,7.0,96,0.00,,,0.00,0,Wunderground v.1.15,2013-04-04 01:37:00,
2013-04-03 20:43:00,47.9,46.8,29.96,ENE,68,1.0,4.0,96,0.00,,,0.00,0,Wunderground v.1.15,2013-04-04 01:43:00,
2013-04-03 20:48:00,47.9,46.8,29.96,North,5,1.0,4.0,96,0.00,,,0.00,0,Wunderground v.1.15,2013-04-04 01:48:00,
2013-04-03 21:02:00,47.9,46.8,29.97,ENE,72,1.0,4.0,96,0.00,,,0.00,0,Wunderground v.1.15,2013-04-04 02:02:00,
2013-04-03 21:08:00,48.0,46.9,29.98,ENE,69,0.0,4.0,96,0.00,,,0.00,0,Wunderground v.1.15,2013-04-04 02:08:00,
2013-04-03 21:14:00,47.9,46.8,29.98,NE,48,2.0,6.0,96,0.00,,,0.00,0,Wunderground v.1.15,2013-04-04 02:14:00,
2013-04-03 21:20:00,47.8,46.7,29.98,NE,34,4.0,4.0,96,0.00,,,0.00,0,Wunderground v.1.15,2013-04-04 02:20:00,
2013-04-03 21:25:00,47.7,46.6,29.99,NNE,15,4.0,9.0,96,0.00,,,0.00,0,Wunderground v.1.15,2013-04-04 02:25:00,
2013-04-03 21:30:00,47.7,46.6,30.00,NE,54,3.0,4.0,96,0.00,,,0.00,0,Wunderground v.1.15,2013-04-04 02:30:00,
2013-04-03 21:35:00,47.7,46.6,30.00,NE,34,3.0,7.0,96,0.00,,,0.00,0,Wunderground v.1.15,2013-04-04 02:35:00,
2013-04-03 21:40:00,47.7,46.6,30.00,NNE,20,2.0,8.0,96,0.00,,,0.00,0,Wunderground v.1.15,2013-04-04 02:40:00,
2013-04-03 21:45:00,47.7,46.6,30.00,NE,42,2.0,8.0,96,0.00,,,0.00,0,Wunderground v.1.15,2013-04-04 02:45:00,
2013-04-03 21:52:00,47.7,46.6,30.00,NNE,33,2.0,6.0,96,0.00,,,0.00,0,Wunderground v.1.15,2013-04-04 02:52:00,
2013-04-03 21:58:00,47.7,46.6,30.01,ENE,66,1.0,6.0,96,0.00,,,0.00,0,Wunderground v.1.15,2013-04-04 02:58:00,
2013-04-03 22:03:00,47.7,46.6,30.00,ENE,63,0.0,4.0,96,0.00,,,0.00,0,Wunderground v.1.15,2013-04-04 03:03:00,
2013-04-03 22:09:00,47.7,46.6,30.00,NE,39,0.0,4.0,96,0.00,,,0.00,0,Wunderground v.1.15,2013-04-04 03:09:00,
2013-04-03 22:14:00,47.7,46.6,30.01,ENE,63,1.0,4.0,96,0.00,,,0.00,0,Wunderground v.1.15,2013-04-04 03:14:00,
2013-04-03 22:20:00,47.7,46.6,30.01,ENE,73,0.0,4.0,96,0.00,,,0.00,0,Wunderground v.1.15,2013-04-04 03:20:00,
2013-04-03 22:25:00,47.7,46.6,30.01,NE,42,0.0,5.0,96,0.00,,,0.00,0,Wunderground v.1.15,2013-04-04 03:25:00,
2013-04-03 22:30:00,47.7,46.6,30.01,NNE,29,0.0,4.0,96,0.00,,,0.00,0,Wunderground v.1.15,2013-04-04 03:30:00,
2013-04-03 22:36:00,47.7,46.6,30.00,NE,34,1.0,4.0,96,0.00,,,0.00,0,Wunderground v.1.15,2013-04-04 03:36:00,
2013-04-03 22:41:00,47.7,46.9,30.00,NE,36,1.0,4.0,97,0.00,,,0.00,0,Wunderground v.1.15,2013-04-04 03:41:00,
2013-04-03 22:47:00,47.7,46.9,30.00,NE,36,0.0,4.0,97,0.00,,,0.00,0,Wunderground v.1.15,2013-04-04 03:47:00,
2013-04-03 22:53:00,47.6,46.8,30.00,NE,39,0.0,4.0,97,0.00,,,0.00,0,Wunderground v.1.15,2013-04-04 03:53:00,
2013-04-03 22:58:00,47.6,46.8,30.00,NE,40,0.0,4.0,97,0.00,,,0.00,0,Wunderground v.1.15,2013-04-04 03:58:00,
2013-04-03 23:00:00,47.6,46.8,30.00,NE,50,0.0,4.0,97,0.00,,,0.00,0,Wunderground v.1.15,2013-04-04 04:00:00,
2013-04-03 23:01:00,47.6,46.8,30.00,NE,38,1.0,6.0,97,0.00,,,0.00,0,Wunderground v.1.15,2013-04-04 04:01:00,
2013-04-03 23:03:00,47.6,46.8,30.00,NE,36,1.0,6.0,97,0.00,,,0.00,0,Wunderground v.1.15,2013-04-04 04:03:00,
2013-04-03 23:04:00,47.6,46.5,30.00,NE,36,1.0,6.0,96,0.00,,,0.00,0,Wunderground v.1.15,2013-04-04 04:04:00,
2013-04-03 23:10:00,47.5,46.4,30.00,NE,35,1.0,1.0,96,0.00,,,0.00,0,Wunderground v.1.15,2013-04-04 04:10:00,
2013-04-03 23:15:00,47.6,46.8,30.00,NE,34,0.0,4.0,97,0.00,,,0.00,0,Wunderground v.1.15,2013-04-04 04:15:00,
2013-04-03 23:20:00,47.6,46.8,30.01,North,5,1.0,1.0,97,0.00,,,0.00,0,Wunderground v.1.15,2013-04-04 04:20:00,
2013-04-03 23:26:00,47.6,46.8,30.01,North,10,1.0,4.0,97,0.00,,,0.00,0,Wunderground v.1.15,2013-04-04 04:26:00,
2013-04-03 23:32:00,47.7,46.9,30.00,ENE,74,0.0,4.0,97,0.00,,,0.00,0,Wunderground v.1.15,2013-04-04 04:32:00,
2013-04-03 23:37:00,47.7,46.9,30.00,NW,323,0.0,7.0,97,0.00,,,0.00,0,Wunderground v.1.15,2013-04-04 04:37:00,
2013-04-03 23:43:00,47.7,46.9,30.00,NNE,20,1.0,4.0,97,0.00,,,0.00,0,Wunderground v.1.15,2013-04-04 04:43:00,
2013-04-03 23:48:00,47.7,46.9,30.00,NNE,20,0.0,4.0,97,0.00,,,0.00,0,Wunderground v.1.15,2013-04-04 04:48:00,
2013-04-03 23:54:00,47.7,46.9,30.00,NNE,20,0.0,4.0,97,0.00,,,0.00,0,Wunderground v.1.15,2013-04-04 04:54:00,
2013-04-03 23:59:00,47.7,46.9,29.99,NNE,20,0.0,4.0,97,0.00,,,0.00,0,Wunderground v.1.15,2013-04-04 04:59:00,